WOLF21 Weather Reports


time (UTC)temp
C
wind
direction
speed
KPH
gust
KPH
rain 1hr
cm
rain 24hr
cm
rain mn
cm
humidity
%
barometer
mb
20260507033048 6 0 0.0 0.0 0.00 1.02 0.99 83 1014.6
20260507031543 7 0 0.0 0.0 0.00 1.02 0.99 82 1014.6
20260507030045 7 0 0.0 0.0 0.00 1.02 0.99 79 1014.7
20260507024545 7 0 0.0 0.0 0.00 1.22 0.99 78 1014.8
20260507023040 8 0 0.0 0.0 0.00 1.22 0.99 76 1014.8
20260507021556 8 0 0.0 0.0 0.00 1.22 0.99 74 1014.6
20260507020045 9 0 0.0 0.0 0.00 1.22 0.99 72 1014.4
20260507014543 10 0 0.0 0.0 0.00 1.68 0.99 71 1014.0
20260507013044 11 0 0.0 0.0 0.00 1.68 0.99 67 1014.1
20260507011543 11 0 0.0 0.0 0.00 1.68 0.99 64 1014.0
20260507010043 11 0 0.0 1.6 0.00 1.68 0.99 63 1014.2
20260507004547 11 0 0.0 3.2 0.00 1.88 0.99 62 1014.0
20260507003042 11 0 0.0 3.2 0.00 1.88 0.99 60 1013.6
20260507001542 12 328 0.0 3.2 0.00 1.88 0.99 61 1013.4
20260507000043 12 355 0.0 4.8 0.00 1.88 0.99 60 1013.4
20260506234603 12 0 0.0 4.8 0.00 1.98 0.99 61 1013.4
20260506233046 12 0 1.6 4.8 0.00 1.98 0.99 59 1013.3
20260506231542 13 5 1.6 8.0 0.00 1.98 0.99 58 1013.4
20260506230045 13 23 3.2 8.0 0.00 1.98 0.99 58 1013.4
20260506224545 13 26 1.6 6.4 0.00 2.18 0.99 58 1013.7
20260506223037 13 360 0.0 6.4 0.00 2.18 0.99 60 1013.6
20260506221547 13 293 0.0 8.0 0.00 2.18 0.99 58 1013.8
20260506220047 13 0 3.2 12.9 0.00 2.18 0.99 57 1013.8
20260506214544 13 355 3.2 8.0 0.00 2.29 0.99 54 1013.7
20260506213042 13 306 3.2 9.7 0.00 2.29 0.99 53 1013.4
20260506211541 13 327 1.6 11.3 0.00 2.29 0.99 57 1013.3
20260506210041 13 294 1.6 8.0 0.00 2.29 0.99 56 1013.2
20260506204555 13 39 3.2 6.4 0.00 2.79 0.99 57 1013.3
20260506203045 13 0 1.6 9.7 0.00 2.79 0.99 57 1013.2
20260506201544 13 304 1.6 16.1 0.00 2.79 0.99 56 1013.2
20260506194547 13 244 3.2 17.7 0.00 2.97 0.99 55 1012.8
20260506193047 14 307 4.8 14.5 0.00 2.97 0.99 57 1012.8
20260506191545 13 19 4.8 14.5 0.00 2.97 0.99 54 1013.0
20260506190043 14 335 3.2 16.1 0.00 2.97 0.99 56 1012.9
20260506184540 15 13 3.2 20.9 0.00 2.97 0.99 53 1012.8
20260506183059 15 302 3.2 14.5 0.00 2.97 0.99 55 1012.5
20260506181549 14 355 4.8 14.5 0.00 2.97 0.99 54 1012.9
20260506180044 13 338 4.8 20.9 0.00 2.97 0.99 57 1013.2
20260506174542 14 13 4.8 9.7 0.00 2.97 0.99 59 1013.1
20260506173047 14 5 3.2 8.0 0.00 2.97 0.99 58 1013.2
20260506171549 14 316 4.8 16.1 0.00 2.97 0.99 56 1013.2
20260506170048 13 321 3.2 12.9 0.00 2.97 0.99 60 1013.3
20260506164550 13 296 3.2 12.9 0.00 2.97 0.99 62 1013.2
20260506163044 13 322 8.0 17.7 0.00 2.97 0.99 62 1013.1
20260506161551 12 63 4.8 14.5 0.00 2.97 0.99 64 1013.1
20260506160044 12 9 1.6 12.9 0.00 2.97 0.99 68 1013.1
20260506154548 12 360 1.6 12.9 0.00 2.97 0.99 68 1013.4
20260506153041 11 24 3.2 14.5 0.00 2.97 0.99 72 1013.1
20260506151558 11 284 3.2 14.5 0.00 2.97 0.99 73 1012.5
20260506150040 11 34 1.6 14.5 0.00 2.97 0.99 75 1012.2
20260506144544 10 317 4.8 12.9 0.00 2.97 0.99 74 1012.3
20260506143051 10 5 3.2 9.7 0.00 2.97 0.99 79 1012.0
20260506141544 9 20 1.6 12.9 0.00 2.97 0.99 83 1012.0
20260506140045 8 349 1.6 12.9 0.00 2.97 0.99 83 1012.2
20260506134539 8 11 0.0 9.7 0.00 2.97 0.99 86 1012.0
20260506133048 7 17 3.2 14.5 0.00 2.97 0.99 87 1011.6
20260506131545 7 355 1.6 12.9 0.00 2.97 0.99 88 1011.6
20260506130057 7 5 0.0 8.0 0.00 2.97 0.99 91 1011.4
20260506124541 7 10 1.6 8.0 0.00 2.97 0.99 92 1011.1
20260506123041 7 0 1.6 9.7 0.00 2.97 0.99 92 1011.2
20260506121536 6 351 1.6 6.4 0.00 2.97 0.99 93 1010.9
20260506120046 6 0 0.0 9.7 0.00 2.97 0.99 94 1010.8
20260506114546 6 0 0.0 4.8 0.00 2.97 0.99 94 1010.1
20260506113042 6 286 0.0 6.4 0.00 2.97 0.99 94 1009.9
20260506111541 6 0 1.6 6.4 0.00 2.97 0.99 94 1010.1
20260506110041 6 24 1.6 6.4 0.00 2.97 0.99 95 1009.9
20260506104544 6 329 0.0 8.0 0.00 3.05 0.99 95 1009.5
20260506103047 6 325 3.2 11.3 0.00 3.05 0.99 95 1008.7
20260506101553 6 336 0.0 12.9 0.00 3.05 0.99 95 1009.0
20260506100041 6 275 1.6 8.0 0.00 3.05 0.99 96 1008.9
20260506094547 6 303 0.0 4.8 0.00 3.17 0.99 96 1008.4
20260506093036 6 37 3.2 8.0 0.00 3.17 0.99 95 1007.7
20260506091544 6 329 1.6 6.4 0.03 3.17 0.99 96 1008.2
20260506090045 6 74 3.2 9.7 0.08 3.17 0.99 96 1008.1
20260506084549 6 42 1.6 8.0 0.13 3.17 0.99 96 1008.2
20260506083042 6 51 3.2 12.9 0.18 3.17 0.99 96 1008.2
20260506081538 6 0 3.2 16.1 0.20 3.15 0.97 96 1008.1
20260506073047 7 310 1.6 9.7 0.08 2.97 0.81 96 1008.0
20260506071557 7 360 3.2 9.7 0.08 2.95 0.76 95 1008.0
20260506061543 7 36 9.7 22.5 0.25 2.87 0.69 95 1007.3
20260506044541 9 315 0.0 9.7 0.33 2.51 0.33 96 1007.7
20260506043036 9 5 1.6 8.0 0.28 2.46 0.28 96 1007.5
20260506041555 9 0 0.0 9.7 0.13 2.31 0.13 96 1007.6
20260506040048 10 30 3.2 12.9 0.03 2.18 0.00 95 1007.3
20260506034545 10 30 3.2 9.7 0.05 2.18 2.18 96 1007.2